DW4435 Weather Reports


Display with metric or nautical units.
time (UTC)temp
F
wind
direction
speed
MPH
gust
MPH
rain 1hr
in
rain 24hr
in
rain mn
in
humidity
%
barometer
mb
20180921230018 76 215 0.0 0.0 0.00 0.00 0.00 80 1019.2
20180921224545 77 214 0.0 2.0 0.00 0.00 0.00 77 1019.3
20180921223024 79 237 0.0 2.0 0.00 0.00 0.00 75 1019.2
20180921221516 81 233 0.0 2.0 0.00 0.00 0.00 71 1019.3
20180921220017 82 140 1.0 3.0 0.00 0.00 0.00 69 1019.3
20180921214523 83 150 0.0 2.0 0.00 0.00 0.00 69 1019.3
20180921213015 83 140 1.0 5.0 0.00 0.00 0.00 65 1019.2
20180921211518 83 224 1.0 4.0 0.00 0.00 0.00 66 1019.2
20180921210037 82 203 0.0 1.0 0.00 0.00 0.00 70 1019.4
20180921204522 82 177 0.0 3.0 0.00 0.00 0.00 67 1019.5
20180921203013 83 163 0.0 4.0 0.00 0.00 0.00 63 1019.6
20180921201524 84 160 0.0 3.0 0.00 0.00 0.00 64 1019.8
20180921200018 86 248 1.0 2.0 0.00 0.00 0.00 60 1019.9
20180921194520 86 167 1.0 4.0 0.00 0.00 0.00 59 1019.8
20180921193007 86 240 1.0 4.0 0.00 0.00 0.00 57 1020.1
20180921191612 86 246 1.0 5.0 0.00 0.00 0.00 57 1020.2
20180921190143 86 238 2.0 5.0 0.00 0.00 0.00 55 1020.5
20180921184623 86 210 1.0 4.0 0.00 0.00 0.00 56 1020.7
20180921183141 86 155 0.0 4.0 0.00 0.00 0.00 56 1020.8
20180921181555 85 233 1.0 6.0 0.00 0.00 0.00 57 1021.0
20180921180113 84 155 2.0 5.0 0.00 0.00 0.00 59 1021.2
20180921174621 84 217 1.0 5.0 0.00 0.00 0.00 63 1021.5
20180921173122 84 104 1.0 4.0 0.00 0.00 0.00 60 1021.7
20180921171552 84 107 2.0 5.0 0.00 0.00 0.00 60 1022.0
20180921170113 82 174 0.0 3.0 0.00 0.00 0.00 66 1022.4
20180921164533 82 104 0.0 4.0 0.00 0.00 0.00 64 1022.5
20180921163042 83 96 1.0 5.0 0.00 0.00 0.00 61 1022.8
20180921161533 83 131 1.0 3.0 0.00 0.00 0.00 62 1023.1
20180921160036 82 82 0.0 5.0 0.00 0.00 0.00 64 1023.4
20180921154541 81 219 1.0 5.0 0.00 0.00 0.00 65 1023.5
20180921153038 81 101 1.0 4.0 0.00 0.00 0.00 65 1023.7
20180921151531 81 242 0.0 2.0 0.00 0.00 0.00 67 1023.9
20180921150026 80 156 0.0 2.0 0.00 0.00 0.00 70 1024.0
20180921144538 80 120 0.0 1.0 0.00 0.00 0.00 72 1024.2
20180921143016 78 360 0.0 2.0 0.00 0.00 0.00 75 1024.3
20180921141509 76 101 0.0 3.0 0.00 0.00 0.00 78 1024.4
20180921140011 76 228 0.0 3.0 0.00 0.00 0.00 79 1024.2
20180921134507 76 99 0.0 3.0 0.00 0.01 0.00 81 1024.2
20180921133151 75 307 0.0 1.0 0.00 0.01 0.00 87 1024.1
20180921131628 72 300 0.0 1.0 0.00 0.01 0.00 93 1024.0
20180921130122 70 301 0.0 2.0 0.00 0.01 0.00 97 1024.1
20180921124555 69 74 0.0 1.0 0.00 0.01 0.00 99 1024.1
20180921123052 67 74 0.0 0.0 0.00 0.01 0.00 99 1024.0
20180921121604 66 74 0.0 0.0 0.00 0.01 0.00 99 1023.8
20180921120039 64 73 0.0 0.0 0.00 0.01 0.00 99 1023.9
20180921114537 63 74 0.0 0.0 0.00 0.01 0.00 99 1023.7
20180921113034 61 74 0.0 0.0 0.00 0.01 0.00 99 1023.6
20180921110113 60 74 0.0 0.0 0.00 0.01 0.00 99 1023.4
20180921104553 61 74 0.0 0.0 0.00 0.01 0.00 99 1023.4
20180921103030 61 74 0.0 0.0 0.00 0.01 0.00 99 1023.3
20180921101532 61 74 0.0 0.0 0.00 0.01 0.00 99 1023.1
20180921100027 62 73 0.0 0.0 0.00 0.01 0.00 99 1023.0
20180921094529 62 74 0.0 0.0 0.00 0.01 0.00 99 1022.7
20180921093040 62 74 0.0 0.0 0.00 0.01 0.00 99 1022.6
20180921091553 62 74 0.0 0.0 0.00 0.01 0.00 99 1022.5
20180921090047 62 74 0.0 0.0 0.00 0.01 0.00 99 1022.4
20180921084524 62 73 0.0 0.0 0.00 0.01 0.00 99 1022.2
20180921083045 62 74 0.0 0.0 0.00 0.01 0.00 99 1022.2
20180921081526 62 74 0.0 0.0 0.00 0.01 0.00 99 1022.3
20180921080023 62 74 0.0 0.0 0.00 0.01 0.00 99 1022.3
20180921074537 62 73 0.0 0.0 0.00 0.01 0.00 98 1022.2
20180921073031 62 73 0.0 0.0 0.00 0.01 0.00 98 1022.3
20180921070028 63 74 0.0 0.0 0.00 0.01 0.00 99 1022.2
20180921064512 63 74 0.0 0.0 0.00 0.01 0.00 98 1022.4
20180921063011 63 74 0.0 0.0 0.00 0.01 0.00 98 1022.6
20180921061520 63 74 0.0 0.0 0.00 0.01 0.00 98 1022.8
20180921060006 63 74 0.0 0.0 0.00 0.01 0.00 98 1023.0
20180921054504 64 74 0.0 0.0 0.00 0.01 0.00 98 1023.2
20180921053123 64 74 0.0 0.0 0.00 0.01 0.00 98 1023.4
20180921051707 64 74 0.0 0.0 0.00 0.01 0.00 98 1023.4
20180921050116 64 74 0.0 0.0 0.00 0.01 0.00 98 1023.4
20180921044605 64 74 0.0 0.0 0.00 0.01 0.00 98 1023.5
20180921043149 64 74 0.0 0.0 0.00 0.01 0.00 98 1023.4
20180921041559 64 74 0.0 0.0 0.00 0.01 0.00 98 1023.4
20180921040114 64 74 0.0 0.0 0.00 0.01 0.00 98 1023.4
20180921034553 64 74 0.0 0.0 0.00 0.01 0.01 97 1023.4
20180921033110 65 74 0.0 0.0 0.00 0.01 0.01 97 1023.4
20180921031708 65 74 0.0 0.0 0.00 0.01 0.01 97 1023.4
20180921030051 65 74 0.0 0.0 0.00 0.01 0.01 97 1023.2
20180921024609 66 74 0.0 0.0 0.00 0.01 0.01 96 1023.1
20180921023146 66 73 0.0 0.0 0.00 0.01 0.01 96 1023.0
20180921021706 67 73 0.0 0.0 0.00 0.01 0.01 95 1023.0
20180921020149 67 74 0.0 0.0 0.00 0.01 0.01 95 1022.9
20180921014608 67 74 0.0 0.0 0.00 0.01 0.01 94 1022.8
20180921013052 67 74 0.0 0.0 0.00 0.01 0.01 93 1022.7
20180921011539 68 74 0.0 1.0 0.00 0.01 0.01 93 1022.4
20180921010051 68 74 0.0 1.0 0.00 0.01 0.01 92 1022.5
20180921004631 69 74 0.0 0.0 0.00 0.01 0.01 91 1022.5
20180921003043 69 74 0.0 1.0 0.00 0.01 0.01 90 1022.2
20180921001544 70 111 0.0 1.0 0.00 0.01 0.01 89 1022.1
20180921000045 71 91 0.0 3.0 0.00 0.01 0.01 87 1021.9
20180920234533 71 76 0.0 2.0 0.00 0.01 0.01 86 1021.8
20180920233038 72 79 0.0 3.0 0.00 0.01 0.01 85 1021.6
20180920231542 73 65 1.0 2.0 0.00 0.01 0.01 83 1021.5